www.pogodaiklimat.ru

Погода и климат >> Архив погоды >> Австралия >> Южная Австралия >> Ли-Крик


ПОГОДА в Ли-Крике

  • Прогноз погоды в Ли-Крике
  • Монитор погоды в Ли-Крике

АРХИВ ПОГОДЫ в Ли-Крике

Время (UTC), дата Ветер
(напр.,м/с)
 
Видим.   Явления Облачность Т
(С)
Тd
(С)
f
(%)
Тe
(С)
Тes
(С)
Комфортность P
(гПа)
Po
(гПа)
Тmin
(С)
Tmax
(С)
R
(мм)
R24
(мм)
S
(см)
01 9.06 С 7 н/о н/о +15.1 +10.5 74 +13 +13 1019.6 988.6
02 9.06 С 8 н/о н/о +17.0 +9.2 60 +16 +16 1018.7 987.7 +10.8
04 9.06 С 8 н/о н/о +18.3 +8.6 53 +18 +18 1017.0 986.0
05 9.06 С 8 н/о н/о +19.9 +8.3 47 +20 +20 1015.7 984.8
07 9.06 С 8 н/о н/о +19.1 +6.6 44 +19 +19 1014.7 983.8
08 9.06 С 7 н/о н/о +17.7 +5.6 45 +17 +17 1014.8 983.9
10 9.06 С 4 н/о н/о +13.9 +4.2 52 +13 +13 1015.0 984.1
11 9.06 С 4 н/о н/о +13.2 +3.6 52 +12 +12 1015.1 984.2
13 9.06 С 8 н/о н/о +15.7 +7.5 58 +14 +14 1015.3 984.4
14 9.06 С 6 н/о н/о +14.6 +8.3 66 +13 +13 1015.2 984.3 +20.6
16 9.06 С 5 н/о н/о +13.7 +9.9 78 +12 +12 1014.5 983.6
17 9.06 С 4 н/о н/о +12.6 +9.6 82 +11 +11 1014.6 983.7
19 9.06 С 3 н/о н/о +13.6 +10.2 80 +13 +13 1015.3 984.4
20 9.06 В 3 н/о н/о +11.9 +9.3 84 +10 +10 1015.5 984.6
22 9.06 В 2 н/о н/о +9.6 +8.0 90 +8 +8 1017.3 986.3
23 9.06 штиль 0 н/о н/о +12.1 +9.1 82 +12 +12 1017.6 986.6
01 10.06 Ю 4 н/о н/о +17.6 +6.5 48 +17 +17 1018.5 987.5
02 10.06 ЮЗ 4 н/о н/о +18.3 +5.2 42 +18 +18 1018.2 987.2 +9.5
04 10.06 ЮЗ 4 н/о н/о +19.6 +1.6 30 +20 +20 1017.4 986.4
05 10.06 ЮЗ 4 н/о н/о +20.1 -2.3 22 +20 +20 1017.3 986.3
07 10.06 ЮЗ 1 н/о н/о +19.7 -3.2 21 +21 +21 комфорт 1017.4 986.4
08 10.06 ЮЗ 2 н/о н/о +16.7 -3.9 24 +17 +17 1017.9 986.9
10 10.06 штиль 0 н/о н/о +11.7 -4.8 31 +12 +12 1019.1 988.1
11 10.06 ЮЗ 3 н/о н/о +9.7 -5.0 35 +8 +8 1019.5 988.5
13 10.06 ЮЗ 3 н/о н/о +7.6 -4.2 43 +5 +5 1020.0 988.9
14 10.06 ЮЗ 2 н/о н/о +7.1 -3.7 46 +6 +6 1020.1 989.0 +20.6
16 10.06 ЮВ 2 н/о н/о +6.8 -3.4 48 +5 +5 1019.9 988.8
17 10.06 ЮВ 3 н/о н/о +6.5 -3.2 50 +4 +4 1019.9 988.8
19 10.06 ЮВ 2 н/о н/о +5.9 -2.7 54 +5 +5 1019.3 988.3
20 10.06 ЮВ 3 н/о н/о +7.0 -1.9 53 +5 +5 1019.8 988.7
22 10.06 ЮВ 2 н/о н/о +6.9 -1.5 55 +5 +5 1021.3 990.2
23 10.06 ЮВ 2 н/о н/о +11.2 0.0 46 +11 +11 1021.4 990.3
01 11.06 СВ 3 н/о н/о +21.7 +4.7 33 +22 +22 комфорт 1021.6 990.5
02 11.06 С 5 н/о н/о +23.6 +5.5 31 +24 +24 комфорт 1020.9 989.8 +5.4
04 11.06 СЗ 7 н/о н/о +25.5 +9.3 36 +26 +26 жарко 1018.6 987.6
05 11.06 С 7 н/о н/о +25.9 +10.1 37 +27 +27 жарко 1018.0 987.0
07 11.06 С 6 н/о н/о +24.8 +11.0 42 +26 +26 жарко 1017.9 986.9
08 11.06 С 5 н/о н/о +24.1 +10.7 43 +25 +25 комфорт 1017.7 986.7
10 11.06 СВ 4 н/о н/о +22.6 +9.7 44 +24 +24 комфорт 1018.2 987.2
11 11.06 СВ 6 н/о н/о +23.4 +10.1 43 +25 +25 комфорт 1018.0 987.0
13 11.06 С 9 н/о н/о +23.7 +8.9 39 +24 +24 комфорт 1017.4 986.4
14 11.06 С 10 н/о н/о +23.3 +8.2 38 +24 +24 комфорт 1016.8 985.8 +26.4
16 11.06 С 11 н/о н/о +22.1 +7.5 39 +23 +23 комфорт 1015.4 984.5
17 11.06 С 14 н/о н/о +21.5 +8.7 44 +23 +23 комфорт 1014.5 983.6
19 11.06 С 13 н/о н/о +20.6 +9.2 48 +21 +21 комфорт 1012.8 982.0
20 11.06 С 12 н/о н/о +20.3 +9.8 51 +21 +21 комфорт 1012.7 981.9
22 11.06 З 4 н/о н/о +16.6 +14.8 89 +16 +16 1018.2 987.2
23 11.06 штиль 0 н/о туман местами н/о +16.3 +15.8 97 +16 +16 1018.8 987.8 5
01 12.06 В 3 н/о н/о +16.6 +16.6 100 +16 +16 1018.3 987.3
02 12.06 Ю 7 н/о в посл. час дождь {туман} н/о +14.1 +13.9 99 +12 +12 1018.0 987.0 +16.3
04 12.06 ЮВ 3 н/о н/о +14.1 +13.9 99 +13 +13 1017.1 986.1
05 12.06 В 4 н/о {туман} н/о +15.0 +14.8 99 +14 +14 1016.6 985.6 6
07 12.06 штиль 0 н/о н/о +15.4 +14.4 94 +15 +15 1017.2 986.2
08 12.06 ЮЗ 2 н/о н/о +14.9 +12.2 84 +15 +15 1017.4 986.4
10 12.06 ЮЗ 2 н/о н/о +14.0 +13.2 95 +14 +14 1018.9 987.9
11 12.06 штиль 0 н/о н/о +13.2 +13.0 99 +13 +13 1019.4 988.4
13 12.06 штиль 0 н/о н/о +11.2 +11.2 100 +10 +10 1020.1 989.0
14 12.06 штиль 0 н/о {туман} н/о +11.2 +11.2 100 +10 +10 1020.1 989.0 +23.8
16 12.06 штиль 0 н/о н/о +9.3 +9.3 100 +8 +8 1019.8 988.7
17 12.06 ЮЗ 3 н/о {туман} н/о +9.7 +9.7 100 +7 +7 1020.1 989.0 0.2
19 12.06 Ю 3 н/о н/о +10.2 +10.2 100 +8 +8 1020.2 989.1
20 12.06 Ю 3 н/о н/о +8.9 +8.9 100 +6 +6 1020.5 989.4
22 12.06 Ю 3 н/о н/о +6.6 +6.6 100 +4 +4 1021.5 990.4
23 12.06 Ю 1 н/о н/о +8.0 +8.0 100 +8 +8 1022.0 990.9 6
01 13.06 Ю 1 н/о н/о +13.4 +13.4 100 +14 +14 1022.9 991.8
02 13.06 Ю 4 н/о н/о +15.5 +9.0 65 +15 +15 1022.4 991.3 +6.6
04 13.06 Ю 5 н/о н/о +15.8 +8.8 63 +15 +15 1020.8 989.7
05 13.06 Ю 4 н/о {туман} н/о +15.8 +8.8 63 +15 +15 1020.5 989.4 0.2
07 13.06 Ю 4 н/о н/о +14.7 +7.3 61 +14 +14 1020.8 989.7
08 13.06 Ю 3 н/о н/о +13.1 +8.0 71 +12 +12 1021.2 990.1
10 13.06 Ю 2 н/о н/о +10.4 +8.5 88 +9 +9 1022.2 991.1
11 13.06 Ю 3 н/о н/о +9.9 +8.2 89 +8 +8 1022.4 991.3
13 13.06 Ю 2 н/о н/о +8.4 +7.0 91 +6 +6 1022.6 991.5
14 13.06 Ю 3 н/о н/о +7.3 +6.9 97 +4 +4 1022.5 991.4 +16.4
16 13.06 Ю 2 н/о н/о +6.3 +6.2 99 +4 +4 1022.0 990.9
17 13.06 Ю 1 н/о н/о +6.4 +6.3 99 +5 +5 1021.8 990.7
19 13.06 Ю 2 н/о н/о +6.2 +6.1 99 +4 +4 1021.7 990.6
20 13.06 Ю 2 н/о н/о +5.5 +5.4 99 +3 +3 1021.6 990.5
22 13.06 штиль 0 н/о н/о +4.9 +4.8 99 +4 +4 1022.6 991.5
23 13.06 штиль 0 н/о н/о +7.4 +7.3 99 +6 +6 1023.2 992.0 0.2
01 14.06 Ю 1 н/о н/о +13.7 +7.2 65 +14 +14 1023.7 992.5
02 14.06 Ю 3 н/о н/о +15.8 +8.5 62 +16 +16 1023.4 992.2 +5.0
04 14.06 Ю 4 н/о н/о +16.5 +7.4 55 +16 +16 1021.5 990.4
05 14.06 Ю 5 н/о н/о +16.9 +5.5 47 +16 +16 1021.1 990.0
07 14.06 ЮЗ 5 н/о н/о +16.3 +5.3 48 +15 +15 1020.9 989.8
08 14.06 Ю 5 н/о н/о +14.5 +6.1 57 +13 +13 1021.2 990.1
10 14.06 Ю 3 н/о н/о +11.3 +6.6 73 +10 +10 1022.3 991.2
11 14.06 Ю 3 н/о н/о +10.7 +6.5 75 +9 +9 1022.6 991.5
13 14.06 Ю 1 н/о н/о +9.0 +5.9 81 +8 +8 1022.9 991.8
14 14.06 Ю 2 н/о н/о +9.1 +6.2 82 +7 +7 1022.8 991.7 +17.5
16 14.06 штиль 0 н/о н/о +7.5 +5.6 88 +7 +7 1022.5 991.4
17 14.06 штиль 0 н/о н/о +8.0 +6.3 89 +7 +7 1022.4 991.3
19 14.06 Ю 2 н/о н/о +7.1 +5.7 91 +5 +5 1022.0 990.9
20 14.06 Ю 1 н/о н/о +6.2 +5.3 94 +5 +5 1021.9 990.8
22 14.06 штиль 0 н/о н/о +5.5 +4.8 95 +4 +4 1022.5 991.4
23 14.06 штиль 0 н/о н/о +8.8 +6.3 84 +8 +8 1023.3 992.1
01 15.06 СВ 3 н/о н/о +16.2 +6.3 52 +16 +16 1023.8 992.6
02 15.06 СВ 4 н/о н/о +17.4 +5.4 45 +17 +17 1023.2 992.0 +5.4
04 15.06 С 3 н/о н/о +16.7 +1.6 36 +17 +17 1021.3 990.2
05 15.06 С 1 н/о н/о +17.0 +2.6 38 +18 +18 1020.8 989.7
07 15.06 С 2 н/о н/о +16.4 +3.1 41 +17 +17 1020.4 989.3
08 15.06 штиль 0 н/о н/о +14.8 +4.5 50 +15 +15 1020.7 989.6
10 15.06 ЮЗ 2 н/о н/о +11.8 +6.3 69 +11 +11 1021.5 990.4
11 15.06 ЮЗ 1 н/о н/о +11.1 +6.3 72 +12 +12 1021.7 990.6
13 15.06 штиль 0 н/о н/о +10.7 +6.8 77 +10 +10 1021.8 990.7
14 15.06 Ю 2 н/о н/о +10.4 +7.1 80 +9 +9 1022.1 991.0 +18.8
16 15.06 штиль 0 н/о н/о +9.2 +7.3 88 +8 +8 1021.8 990.7
17 15.06 штиль 0 н/о н/о +10.0 +7.4 84 +9 +9 1021.5 990.4
19 15.06 штиль 0 н/о н/о +9.0 +7.3 89 +8 +8 1021.1 990.0
20 15.06 Ю 3 н/о н/о +8.2 +6.3 88 +6 +6 1021.0 989.9
22 15.06 штиль 0 н/о н/о +7.0 +6.6 97 +6 +6 1022.4 991.3
23 15.06 штиль 0 н/о н/о +9.1 +5.5 78 +8 +8 1022.8 991.7

 

Местоположение метеостанции Ли-Крик (Южная Австралия, Австралия): широта -30.60 долгота 138.42 высота над уровнем моря 11 м.

В архиве по умолчанию представлена погода в Ли-Крике за последнюю неделю. Архивные данные за месяц целиком и за предыдущие месяцы, начиная с января 2011 года, Вы можете получить, выбрав интересующий диапазон дат из раскрывающегося списка и нажав кнопку "Ввод!".


*Определитесь, кто Вы:
робот инопланетянин человек

Внимание! Время в таблицах - всемирное. Для получения местного времени необходимо прибавить поправку, которая равна 9.5 ч.

Смотрите также архив погоды в соседних городах и на ближайших метеорологических станциях:

Погода в Марри (Южная Австралия, Австралия) (110 км)
Погода в Олимпик Дэм (Южная Австралия, Австралия) (148 км)
Погода на Аэродроме Вумера (Южная Австралия, Австралия) (165 км)
Погода в Порт Огаста (Южная Австралия, Австралия) (224 км)
Погода в Юнте (Южная Австралия, Австралия) (245 км)
Погода в Уиолле (Южная Австралия, Австралия) (288 км)
Погода в Фоулерс Гэп (Новый Южный Уэльс, Австралия) (318 км)
Погода в Мумбе (Южная Австралия, Австралия) (327 км)
Погода в Брокен-Хилл аэропорту (Новый Южный Уэльс, Австралия) (328 км)
Погода в Сноутауне (Южная Австралия, Австралия) (354 км)

Пояснения к столбцам:

Ветер - указаны скорость ветра в м/с - средняя за 10 мин, порывы в срок и между сроками (в фигурных скобках) и направление, откуда дует ветер: С - северный, СВ - северо-восточный, В - восточный, ЮВ - юго-восточный, Ю - южный, ЮЗ - юго-западный, З - западный, СЗ - северо-западный.
Видимость - горизонтальная дальность видимости в метрах или километрах. При видимости от 1 до 10 км при отсутствии осадков обычно наблюдается дымка, при ухудшении видимости до 1 км и менее - туман. В сухую погоду видимость может ухудшаться дымом, пылью или мглою.
Явления - указаны атмосферные явления, наблюдавшиеся в срок или в последний час перед сроком; фигурными скобками обозначены явления, наблюдавшиеся между сроками (за 1-3 часа до срока); квадратными скобками обозначены град или гололедные отложения с указанием их диаметра в мм.
Облачность - указаны через наклонную черту общая и нижняя облачность в баллах и высота нижней границы облаков в метрах; квадратными скобками обозначены формы облаков: Ci - перистые, Cs - перисто-слоистые, Cc - перисто-кучевые, Ac - высококучевые, As - высокослоистые, Sc - слоисто-кучевые, Ns - слоисто-дождевые, Cu - кучевые, Cb - кучево-дождевые. Подробнее классификацию облаков см. в Атласе облаков (PDF).
T - Температура воздуха - температура, измеренная на высоте 2 м над землей.
Td - Температура точки росы - температура, при понижении до которой содержащийся в воздухе водяной пар достигнет насыщения.
f - Относительная влажность воздуха - влажноcть воздуха, измеренная на высоте 2 м над землей.
Te - Эффективная температура - температура, которую ощущает одетый по сезону человек в тени. Характеристика душности погоды. При расчете учитывается влияние влажности воздуха и скорости ветра на теплоощущения человека.
Tes - Эффективная температура на солнце - температура, которую ощущает человек, с поправкой на солнечный нагрев. Характеристика знойности погоды. Зависит от высоты солнца над горизонтом, облачности и скорости ветра. Ночью, в пасмурную погоду, а также при ветре 12 м/с и более поправка равна нулю.
P - Атмосферное давление - приведенное к уровню моря атмосферное давление.
Po - Атмосферное давление - измеренное на уровне метеостанции атмосферное давление.
Tmin - Минимальная температура - минимум температуры воздуха на высоте 2 м над землей.
Tmax - Максимальная температура - максимум температуры воздуха на высоте 2 м над землей.
R - Количество осадков - Количество выпавших осадков за период времени, мм. При наведении курсора мыши на число - период времени, за который выпало указанное количество осадков.
R24 - Количество осадков - Количество выпавших осадков за 24 часа, мм.
S - Снежный покров - Высота снежного покрова, см. При наведении курсора мыши на число - состояние снежного покрова и степень покрытия местности в баллах.